Regional Weather Roundup
Issued by NWS Charleston, WV

Home | Current Version | Previous Version | Text Only | Print | Product List | Glossary Off
Versions: 1 2 3 4 5 6 7 8 9 10 11 12 13 14 15 16 17 18 19 20 21 22 23 24 25 26 27 28 29 30 31 32 33 34 35 36 37 38 39 40 41 42 43 44 45 46 47 48 49 50

000
ASUS41 KRLX 230010
RWRRLX
West Virginia Regional Weather Roundup
National Weather Service Charleston WV
800 PM EDT FRI MAY 22 2015

Note: "fair" indicates few or no clouds below 12,000 feet with no
significant weather and/or obstructions to visibility.

WVZ003-230100-
Northern Panhandle of West Virginia

CITY           SKY/WX    TMP DP  RH WIND       PRES   REMARKS
WHEELING       CLEAR     61  30  31 N12       30.22R
$$

WVZ009-230100-
Northwest West Virginia

CITY           SKY/WX    TMP DP  RH WIND       PRES   REMARKS
PARKERSBURG    MOCLDY    64  47  53 NW5       30.23R
$$

WVZ006-230100-
Western West Virginia

CITY           SKY/WX    TMP DP  RH WIND       PRES   REMARKS
HUNTINGTON     MOCLDY    67  44  43 SW6       30.23R
$$

WVZ015-230100-
West Central West Virginia

CITY           SKY/WX    TMP DP  RH WIND       PRES   REMARKS
CHARLESTON     PTCLDY    67  44  43 SW5       30.23R
$$

WVZ022-031-230100-
North Central West Virginia

CITY           SKY/WX    TMP DP  RH WIND       PRES   REMARKS
CLARKSBURG     LGT RAIN  59  52  77 N3        30.22R
MORGANTOWN     MOCLDY    66  43  43 NW7       30.21R
$$

WVZ025-035-042-045-230100-
Southern West Virginia

CITY           SKY/WX    TMP DP  RH WIND       PRES   REMARKS
BECKLEY        PTCLDY    61  40  45 W6        30.28R
LOGAN            N/A     64  45  48 S6        30.24R
BLUEFIELD      CLEAR     62  40  44 W7        30.31R
LEWISBURG      CLEAR     64  37  37 NW3       30.27R
$$

WVZ047-230100-
Northern Mountains of West Virginia

CITY           SKY/WX    TMP DP  RH WIND       PRES   REMARKS
ELKINS         MOCLDY    62  40  44 VRB6      30.23R
$$

WVZ052-230100-
Eastern Panhandle of West Virginia

CITY           SKY/WX    TMP DP  RH WIND       PRES   REMARKS
MARTINSBURG    PTCLDY    66  44  45 W16       30.14R
PETERSBURG     PTCLDY    64  40  42 NW13G21   30.19R
$$



USA.gov is the U.S. government's official web portal to all federal, state and local government web resources and services.